TimeCDT,TemperatureF,Dew PointF,Humidity,Sea Level PressureIn,VisibilityMPH,Wind Direction,Wind SpeedMPH,Gust SpeedMPH,PrecipitationIn,Events,Conditions,WindDirDegrees,DateUTC
12:53 AM,64.0,57.0,78,29.73,10.0,SSE,12.7,-,N/A,,Mostly Cloudy,160,2011-10-12 05:53:00
1:53 AM,63.0,57.0,81,29.73,10.0,SSE,8.1,-,0.00,,Mostly Cloudy,160,2011-10-12 06:53:00
2:53 AM,62.1,57.0,84,29.74,10.0,SSW,9.2,-,N/A,,Scattered Clouds,200,2011-10-12 07:53:00
3:53 AM,61.0,57.0,87,29.74,10.0,SSW,10.4,-,N/A,,Scattered Clouds,200,2011-10-12 08:53:00
4:53 AM,59.0,55.9,90,29.74,10.0,SSW,9.2,-,N/A,,Scattered Clouds,210,2011-10-12 09:53:00
5:53 AM,57.0,55.0,93,29.75,10.0,West,6.9,-,N/A,,Partly Cloudy,280,2011-10-12 10:53:00
6:53 AM,55.0,54.0,96,29.76,10.0,WSW,6.9,-,N/A,,Partly Cloudy,240,2011-10-12 11:53:00
7:53 AM,55.9,55.0,97,29.75,10.0,SW,6.9,-,N/A,,Partly Cloudy,220,2011-10-12 12:53:00
8:53 AM,60.1,57.0,90,29.76,10.0,WSW,9.2,-,N/A,,Scattered Clouds,250,2011-10-12 13:53:00
9:53 AM,66.0,53.1,63,29.77,10.0,West,9.2,-,N/A,,Partly Cloudy,280,2011-10-12 14:53:00
10:53 AM,70.0,50.0,49,29.76,10.0,WNW,9.2,-,N/A,,Partly Cloudy,300,2011-10-12 15:53:00
11:53 AM,73.0,50.0,44,29.75,10.0,WNW,13.8,-,N/A,,Partly Cloudy,300,2011-10-12 16:53:00
12:53 PM,75.9,48.9,38,29.74,10.0,WNW,11.5,-,N/A,,Partly Cloudy,290,2011-10-12 17:53:00
1:53 PM,79.0,46.9,32,29.72,10.0,NW,17.3,29.9,N/A,,Partly Cloudy,310,2011-10-12 18:53:00
2:53 PM,77.0,48.0,36,29.72,10.0,WNW,21.9,27.6,N/A,,Partly Cloudy,300,2011-10-12 19:53:00
3:53 PM,77.0,48.2,36,29.75,10.0,NW,21.9,29.9,N/A,,Scattered Clouds,310,2011-10-12 20:53:00
4:53 PM,77.0,50.0,39,29.73,10.0,NW,25.3,31.1,N/A,,Scattered Clouds,320,2011-10-12 21:53:00
5:53 PM,75.0,46.0,36,29.76,10.0,NNW,28.8,36.8,N/A,,Scattered Clouds,330,2011-10-12 22:53:00
6:53 PM,70.0,46.9,44,29.79,10.0,NNW,13.8,-,N/A,,Partly Cloudy,330,2011-10-12 23:53:00
7:53 PM,68.0,46.9,47,29.82,10.0,NW,16.1,-,N/A,,Partly Cloudy,320,2011-10-13 00:53:00
8:53 PM,64.9,45.0,48,29.84,10.0,NNW,13.8,-,N/A,,Clear,330,2011-10-13 01:53:00
9:53 PM,63.0,45.0,52,29.86,10.0,NNW,11.5,-,N/A,,Clear,330,2011-10-13 02:53:00
10:53 PM,61.0,45.0,56,29.88,10.0,NW,11.5,-,N/A,,Clear,320,2011-10-13 03:53:00
11:53 PM,57.0,45.0,64,29.89,10.0,NW,9.2,-,N/A,,Clear,310,2011-10-13 04:53:00